This is the latest recevied weather packets stored in our database for station/object HB9FHL-13. If no packets are shown the sender has not sent any weather packets the latest 10 day(s).
| Time | Temp. | Humidity | Pressure | Rain* | Wind** | Luminosity | Snow |
|---|---|---|---|---|---|---|---|
| 1777972552 | 11.67° C | - | 1011.8 hPa | 0 mm | - | - | - |
| 1777972251 | 11.67° C | - | 1006.5 hPa | 0 mm | - | - | - |
| 1777971951 | 11.11° C | - | 1009.6 hPa | 0 mm | - | - | - |
| 1777971651 | 11.67° C | - | 1011.9 hPa | 0 mm | - | - | - |
| 1777971350 | 12.22° C | - | 1009.1 hPa | 0 mm | - | - | - |
| 1777971049 | 12.22° C | - | 1006 hPa | 0 mm | - | - | - |
| 1777970749 | 11.67° C | - | 1009.6 hPa | 0 mm | - | - | - |
| 1777970448 | 11.67° C | - | 1012.9 hPa | 0 mm | - | - | - |
| 1777970148 | 12.22° C | - | 1007 hPa | 0 mm | - | - | - |
| 1777969847 | 12.22° C | - | 1013.5 hPa | 0 mm | - | - | - |
| 1777969547 | 11.67° C | - | 1010.3 hPa | 0 mm | - | - | - |
| 1777969247 | 11.67° C | - | 1008.7 hPa | 0 mm | - | - | - |
| 1777968946 | 11.67° C | - | 1008.8 hPa | 0 mm | - | - | - |
| 1777968645 | 12.22° C | - | 1007.8 hPa | 0 mm | - | - | - |
| 1777968345 | 11.67° C | - | 1012.3 hPa | 0 mm | - | - | - |
| 1777968044 | 11.67° C | - | 1008.3 hPa | 0 mm | - | - | - |
| 1777967744 | 11.67° C | - | 1008.7 hPa | 0 mm | - | - | - |
| 1777967443 | 12.22° C | - | 1005.6 hPa | 0 mm | - | - | - |
| 1777967144 | 11.11° C | - | 1008.5 hPa | 0 mm | - | - | - |
| 1777966842 | 11.67° C | - | 1012.9 hPa | 0 mm | - | - | - |
| 1777966542 | 11.11° C | - | 1012.6 hPa | 0 mm | - | - | - |
| 1777966241 | 11.11° C | - | 1010.3 hPa | 0 mm | - | - | - |
| 1777965941 | 11.11° C | - | 1009.9 hPa | 0 mm | - | - | - |
| 1777965640 | 11.11° C | - | 1010.6 hPa | 0 mm | - | - | - |
| 1777965340 | 11.67° C | - | 1005.4 hPa | 0 mm | - | - | - |
* Rain since midnight (hover to see other rain measurements)
** Current wind speed in m/s (hover to see current wind gust speed)